Location: ???? ??
(36.0534°N, 43.5630°E)
Time: 13:05:10
(UTC+00:00)

Meteor 1-4 Rocket - Pass Details

Date: 18 September 2019
Orbit: 449 x 504 km, 81.2° (Epoch: 18 October)

Event Time Altitude Azimuth Distance (km) Brightness Sun altitude
Rises 16:43:40 0° 1° (N) 2,507 6.4 -19.6°
Reaches altitude 10° 16:45:55 10° 12° (NNE) 1,617 5.3 -20.0°
Enters shadow 16:47:11 19° 24° (NNE) 1,175 4.4 -20.2°
